Silver City, NM

2:23 AM MDT on May 23, 2017 (GMT -0600)
Grant County

Weather History for KSVC - October, 2013

Change the Weather History Date:

Wednesday, October 9, 2013

  Actual Average (KDMN) Record (KDMN)
Temperature  
Mean Temperature 58 °F -  
Max Temperature 75 °F 79 °F 90 °F (1956)
Min Temperature 41 °F 43 °F 33 °F (1982)
Degree Days  
Heating Degree Days 7    
Growing Degree Days 8 (Base 50)    
Moisture  
Dew Point 32 °F    
Average Humidity 36    
Maximum Humidity 61    
Minimum Humidity 18    
Precipitation  
Precipitation 0.00 in - - ()
Sea Level Pressure  
Sea Level Pressure 30.02 in    
Wind  
Wind Speed 10 mph (West)    
Max Wind Speed 24 mph    
Max Gust Speed 31 mph    
Visibility 10 miles    
Events Thunderstorm    
Averages and records for this station are not official NWS values.
T = Trace of Precipitation, MM = Missing Value Source: NWS Daily Summary

Daily Weather History Graph

Daily Weather History Graph

Search for Another Location

Airport or City:

Trip Planner

Search our weather history database for the weather conditions in past years. The results will help you decide how hot, cold, wet, or windy it might be!

Date:

Astronomy

Oct. 09, 2013 Rise Set
Actual Time 7:12 AM MDT 6:46 PM MDT
Civil Twilight 6:47 AM MDT 7:11 PM MDT
Nautical Twilight 6:19 AM MDT 7:39 PM MDT
Astronomical Twilight 5:50 AM MDT 8:08 PM MDT
Moon 11:58 AM MDT (10/9) 10:36 PM MDT (10/9)
Length of Visible Light 12h 23m
Length of Day
11h 34m
Waxing Crescent, 26% of the Moon is Illuminated
Oct 9
Waxing Crescent
Oct 11
First Quarter
Oct 18
Full
Oct 26
Last Quarter
Nov 3
New

Hourly Weather History & Observations

Time (MDT) Temp. Windchill Dew Point Humidity Pressure Visibility Wind Dir Wind Speed Gust Speed Precip Events Conditions
12:15 AM 53.6 °F - 30.2 °F 41% 30.03 in 10.0 mi NNW 6.9 mph - N/A   Clear
12:35 AM 51.8 °F - 30.2 °F 44% 30.03 in 10.0 mi NNW 8.1 mph - N/A   Clear
12:55 AM 48.2 °F - 32.0 °F 54% 30.02 in 10.0 mi North 10.4 mph - N/A Thunderstorm Clear
1:15 AM 50.0 °F - 32.0 °F 50% 30.02 in 10.0 mi North 10.4 mph - N/A   Clear
1:35 AM 50.0 °F - 30.2 °F 47% 30.03 in 10.0 mi North 10.4 mph - N/A Thunderstorm Clear
1:55 AM 50.0 °F - 30.2 °F 47% 30.03 in 10.0 mi NNW 11.5 mph - N/A   Clear
2:15 AM 50.0 °F - 28.4 °F 43% 30.02 in 10.0 mi North 9.2 mph - N/A   Clear
2:35 AM 48.2 °F - 28.4 °F 46% 30.02 in 10.0 mi North 9.2 mph - N/A   Clear
2:55 AM 50.0 °F - 28.4 °F 43% 30.03 in 10.0 mi North 9.2 mph - N/A   Clear
3:15 AM 50.0 °F - 28.4 °F 43% 30.03 in 10.0 mi North 6.9 mph - N/A Thunderstorm Clear
3:35 AM 48.2 °F - 28.4 °F 46% 30.02 in 10.0 mi North 8.1 mph - N/A   Clear
3:55 AM 48.2 °F - 28.4 °F 46% 30.01 in 10.0 mi NNE 8.1 mph - N/A Thunderstorm Clear
4:15 AM 46.4 °F 42.4 °F 28.4 °F 50% 30.01 in 10.0 mi NNE 8.1 mph - N/A   Clear
4:35 AM 48.2 °F - 28.4 °F 46% 30.02 in 10.0 mi NNE 8.1 mph - N/A Thunderstorm Clear
4:55 AM 48.2 °F - 28.4 °F 46% 30.02 in 10.0 mi NNW 5.8 mph - N/A Thunderstorm Clear
5:15 AM 44.6 °F 42.2 °F 28.4 °F 53% 30.02 in 10.0 mi NW 4.6 mph - N/A   Clear
5:35 AM 41.0 °F 35.8 °F 28.4 °F 61% 30.02 in 10.0 mi NW 8.1 mph - N/A   Clear
5:55 AM 44.6 °F 39.2 °F 28.4 °F 53% 30.01 in 10.0 mi WNW 10.4 mph - N/A   Clear
6:15 AM 48.2 °F - 28.4 °F 46% 30.02 in 10.0 mi WNW 4.6 mph - N/A   Clear
6:35 AM 46.4 °F 42.9 °F 30.2 °F 53% 30.02 in 10.0 mi NNW 6.9 mph - N/A   Clear
6:55 AM 46.4 °F 44.3 °F 30.2 °F 53% 30.02 in 10.0 mi North 4.6 mph - N/A   Clear
7:15 AM 44.6 °F 41.4 °F 30.2 °F 57% 30.03 in 10.0 mi NNE 5.8 mph - N/A   Clear
7:35 AM 44.6 °F 40.2 °F 30.2 °F 57% 30.03 in 10.0 mi North 8.1 mph - N/A   Clear
7:55 AM 46.4 °F 43.5 °F 32.0 °F 57% 30.04 in 10.0 mi NNE 5.8 mph - N/A   Clear
8:15 AM 51.8 °F - 32.0 °F 47% 30.04 in 10.0 mi NE 3.5 mph - N/A Thunderstorm Clear
8:35 AM 57.2 °F - 32.0 °F 38% 30.05 in 10.0 mi Calm Calm - N/A   Clear
8:55 AM 59.0 °F - 32.0 °F 36% 30.06 in 10.0 mi NE 3.5 mph - N/A Thunderstorm Clear
9:15 AM 60.8 °F - 35.6 °F 39% 30.06 in 10.0 mi Calm Calm - N/A   Clear
9:35 AM 62.6 °F - 35.6 °F 37% 30.07 in 10.0 mi South 5.8 mph - N/A Thunderstorm Clear
9:55 AM 64.4 °F - 39.2 °F 40% 30.07 in 10.0 mi SW 17.3 mph 21.9 mph N/A   Clear
10:15 AM 66.2 °F - 39.2 °F 37% 30.07 in 10.0 mi SSW 18.4 mph 27.6 mph N/A   Clear
10:35 AM 66.2 °F - 39.2 °F 37% 30.07 in 10.0 mi SW 20.7 mph 29.9 mph N/A Thunderstorm Clear
10:55 AM 68.0 °F - 39.2 °F 35% 30.07 in 10.0 mi SSW 21.9 mph 26.5 mph N/A   Clear
11:15 AM 68.0 °F - 39.2 °F 35% 30.07 in 10.0 mi SW 12.7 mph 27.6 mph N/A   Clear
11:35 AM 68.0 °F - 37.4 °F 33% 30.06 in 10.0 mi SW 16.1 mph 24.2 mph N/A   Clear
11:55 AM 69.8 °F - 35.6 °F 28% 30.06 in 10.0 mi SW 16.1 mph 23.0 mph N/A   Clear
12:15 PM 71.6 °F - 35.6 °F 27% 30.05 in 10.0 mi SSW 19.6 mph 25.3 mph N/A   Clear
12:35 PM 71.6 °F - 35.6 °F 27% 30.05 in 10.0 mi South 16.1 mph 27.6 mph N/A   Clear
12:55 PM 71.6 °F - 35.6 °F 27% 30.04 in 10.0 mi SSW 9.2 mph 25.3 mph N/A   Clear
1:15 PM 73.4 °F - 32.0 °F 22% 30.02 in 10.0 mi SW 17.3 mph 24.2 mph N/A   Clear
1:35 PM 71.6 °F - 32.0 °F 23% 30.02 in 10.0 mi SW 18.4 mph 26.5 mph N/A   Clear
1:55 PM 75.2 °F - 32.0 °F 21% 30.01 in 10.0 mi SW 11.5 mph 29.9 mph N/A   Partly Cloudy
2:15 PM 75.2 °F - 32.0 °F 21% 30.00 in 10.0 mi South 23.0 mph 28.8 mph N/A   Clear
2:55 PM 75.2 °F - 32.0 °F 21% 29.99 in 10.0 mi SSW 24.2 mph 31.1 mph N/A   Clear
3:15 PM 75.2 °F - 32.0 °F 21% 29.99 in 10.0 mi SSW 19.6 mph 28.8 mph N/A   Clear
3:35 PM 73.4 °F - 30.2 °F 20% 29.99 in 10.0 mi SSW 24.2 mph 29.9 mph N/A   Clear
3:55 PM 75.2 °F - 30.2 °F 19% 29.99 in 10.0 mi SW 23.0 mph 29.9 mph N/A   Clear
4:15 PM 75.2 °F - 28.4 °F 18% 29.98 in 10.0 mi SW 18.4 mph 31.1 mph N/A   Clear
4:35 PM 75.2 °F - 30.2 °F 19% 29.98 in 10.0 mi SSW 17.3 mph 29.9 mph N/A   Clear
4:55 PM 73.4 °F - 30.2 °F 20% 29.98 in 10.0 mi SSW 18.4 mph 23.0 mph N/A   Partly Cloudy
5:15 PM 73.4 °F - 30.2 °F 20% 29.97 in 10.0 mi SSW 16.1 mph 19.6 mph N/A   Clear
5:55 PM 71.6 °F - 30.2 °F 22% 29.97 in 10.0 mi SW 13.8 mph 23.0 mph N/A   Clear
6:15 PM 71.6 °F - 28.4 °F 20% 29.97 in 10.0 mi SW 13.8 mph 21.9 mph N/A   Clear
6:35 PM 71.6 °F - 28.4 °F 20% 29.98 in 10.0 mi SW 12.7 mph 18.4 mph N/A   Clear
6:55 PM 69.8 °F - 28.4 °F 21% 29.97 in 10.0 mi SW 12.7 mph - N/A   Clear
7:15 PM 68.0 °F - 28.4 °F 23% 29.97 in 10.0 mi SW 11.5 mph - N/A   Clear
7:35 PM 66.2 °F - 28.4 °F 24% 29.97 in 10.0 mi SSW 11.5 mph - N/A   Clear
7:55 PM 64.4 °F - 28.4 °F 26% 29.98 in 10.0 mi SSW 10.4 mph - N/A   Clear
8:15 PM 64.4 °F - 32.0 °F 30% 29.99 in 10.0 mi SW 11.5 mph - N/A   Clear
8:35 PM 62.6 °F - 32.0 °F 32% 29.99 in 10.0 mi SW 8.1 mph - N/A Thunderstorm Clear
8:55 PM 62.6 °F - 32.0 °F 32% 30.00 in 10.0 mi WSW 4.6 mph - N/A   Clear
9:15 PM 59.0 °F - 32.0 °F 36% 30.00 in 10.0 mi Calm Calm - N/A   Clear
9:35 PM 60.8 °F - 32.0 °F 34% 30.01 in 10.0 mi SSW 4.6 mph - N/A   Clear
9:55 PM 59.0 °F - 32.0 °F 36% 30.01 in 10.0 mi SW 3.5 mph - N/A   Clear
10:15 PM 57.2 °F - 32.0 °F 38% 30.01 in 10.0 mi Calm Calm - N/A   Clear
10:55 PM 57.2 °F - 32.0 °F 38% 30.02 in 10.0 mi Calm Calm - N/A   Clear
11:15 PM 59.0 °F - 32.0 °F 36% 30.02 in 10.0 mi Calm Calm - N/A   Clear
11:35 PM 59.0 °F - 32.0 °F 36% 30.01 in 10.0 mi West 3.5 mph - N/A   Clear
11:55 PM 53.6 °F - 32.0 °F 44% 30.01 in 10.0 mi West 5.8 mph - N/A   Clear